Location: Calberlah
(52.4230°N, 10.6240°E)
Time: 20:14:55
(UTC+00:00)

Cosmos 1420 Rocket - Pass Details

Date: 19 May 2025
Orbit: 750 x 777 km, 74.0° (Epoch: 20 June)

Event Time Altitude Azimuth Distance (km) Brightness Sun altitude
Rises 23:33:41 0° 331° (NNW) 3,272 8.2 -17.5°
Reaches altitude 10° 23:36:09 10° 326° (NW) 2,339 7.2 -17.4°
Maximum altitude 23:41:14 48° 253° (WSW) 1,005 4.4 -17.3°
Enters shadow 23:43:28 30° 197° (SSW) 1,366 4.7 -17.3°
